Starlink 32614

operational
NORAD ID: 62428 Int'l Des: 2024-249 Owner: SPXS Country: US Constellation: starlink
LEOCIRCULAR

Starlink 32614について

説明を読み込み中...

リアルタイム位置

3D地球を読み込み中...

次回通過

高度履歴

Altitude vs Time

uPlot chart will show altitude changes over time

軌道要素

1 62428U 24249V 25353.60194885 .00017750 00000-0 65275-3 0 9990
2 62428 42.9992 54.2928 0001501 275.8525 84.2156 15.27591478 55476
Epoch: Dec 19, 2025 • Age: 17 hours

現在のステータス

高度 482.4 km
速度 7.63 km/s
衛星直下点 17.73°N, 136.36°W
打ち上げ日 Dec 23, 2024
運用期間 0.9 years
タイプ internet

技術仕様

分類 Payload
質量 730.00 kg
乾燥質量 700.00 kg
総質量 730.00 kg
長さ 0.30 m
直径 4.10 m
スパン 29.00 m
形状 Box + pan
製造者 SPXS
バスタイプ Starlink V2M
フェーズステータス In Orbit
所有者/国 SPXS/US

大規模コンステレーション

Loading constellations...